Time,TemperatureF,DewpointF,PressureIn,WindDirection,WindDirectionDegrees,WindSpeedMPH,WindSpeedGustMPH,Humidity,HourlyPrecipIn,Conditions,Clouds,dailyrainin,SoftwareType,DateUTC
2013-07-28 00:00:00,73.4,67.2,29.76,SSE,158,0.0,0.0,81,0.00,,---,0.00,VWS V14.01,2013-07-28 04:00:00,
2013-07-28 00:02:00,73.4,67.2,29.76,SSE,158,0.0,0.0,81,0.00,,---,0.00,VWS V14.01,2013-07-28 04:02:00,
2013-07-28 00:05:00,73.4,67.2,29.76,SSE,158,0.0,0.0,81,0.00,,---,0.00,VWS V14.01,2013-07-28 04:05:00,
2013-07-28 00:07:00,73.4,67.2,29.76,SSE,158,0.0,0.0,81,0.00,,---,0.00,VWS V14.01,2013-07-28 04:07:00,
2013-07-28 00:10:00,73.2,67.1,29.76,SSE,158,0.0,0.0,81,0.00,,---,0.00,VWS V14.01,2013-07-28 04:10:00,
2013-07-28 00:15:00,73.2,67.4,29.79,SSE,158,0.0,0.0,82,0.00,,---,0.00,VWS V14.01,2013-07-28 04:15:00,
2013-07-28 00:20:00,73.2,67.1,29.79,SSE,158,0.0,0.0,81,0.00,,---,0.00,VWS V14.01,2013-07-28 04:20:00,
2013-07-28 00:25:00,73.2,67.4,29.79,SSE,158,0.0,0.0,82,0.00,,---,0.00,VWS V14.01,2013-07-28 04:25:00,
2013-07-28 00:30:00,73.2,67.4,29.79,SSE,158,0.0,0.0,82,0.00,,---,0.00,VWS V14.01,2013-07-28 04:30:00,
2013-07-28 00:35:00,73.0,67.2,29.79,SSE,158,0.0,0.0,82,0.00,,---,0.00,VWS V14.01,2013-07-28 04:35:00,
2013-07-28 00:40:00,73.0,67.6,29.79,SSE,158,0.0,0.0,83,0.00,,---,0.00,VWS V14.01,2013-07-28 04:40:00,
2013-07-28 00:45:00,72.9,67.4,29.79,SSE,158,0.0,0.0,83,0.00,,---,0.00,VWS V14.01,2013-07-28 04:45:00,
2013-07-28 00:50:00,72.9,67.4,29.79,SSE,158,0.0,0.0,83,0.00,,---,0.00,VWS V14.01,2013-07-28 04:50:00,
2013-07-28 00:55:00,72.9,67.4,29.79,SSE,158,0.0,0.0,83,0.00,,---,0.00,VWS V14.01,2013-07-28 04:55:00,
2013-07-28 01:00:00,72.9,67.8,29.79,SSE,158,0.0,0.0,84,0.00,,---,0.00,VWS V14.01,2013-07-28 05:00:00,
2013-07-28 01:05:00,72.9,67.4,29.79,SSE,158,0.0,0.0,83,0.00,,---,0.00,VWS V14.01,2013-07-28 05:05:00,
2013-07-28 01:10:00,72.7,67.6,29.79,SSE,158,0.0,0.0,84,0.00,,---,0.00,VWS V14.01,2013-07-28 05:10:00,
2013-07-28 01:15:00,72.7,67.9,29.79,SSE,158,0.0,0.0,85,0.00,,---,0.00,VWS V14.01,2013-07-28 05:15:00,
2013-07-28 01:20:00,72.7,68.3,29.79,SSE,158,0.0,0.0,86,0.00,,---,0.00,VWS V14.01,2013-07-28 05:20:00,
2013-07-28 01:25:00,72.7,68.3,29.80,SSE,158,0.0,0.0,86,0.00,,---,0.00,VWS V14.01,2013-07-28 05:25:00,
2013-07-28 01:27:00,72.7,68.3,29.79,SSE,158,0.0,0.0,86,0.00,,---,0.00,VWS V14.01,2013-07-28 05:27:00,
2013-07-28 01:30:00,72.7,68.3,29.80,SSE,158,0.0,0.0,86,0.00,,---,0.00,VWS V14.01,2013-07-28 05:30:00,
2013-07-28 01:32:00,72.7,68.3,29.79,SSE,158,0.0,0.0,86,0.00,,---,0.00,VWS V14.01,2013-07-28 05:32:00,
2013-07-28 01:35:00,72.7,68.3,29.80,SSE,158,0.0,0.0,86,0.00,,---,0.00,VWS V14.01,2013-07-28 05:35:00,
2013-07-28 01:37:00,72.7,68.3,29.79,SSE,158,0.0,0.0,86,0.00,,---,0.00,VWS V14.01,2013-07-28 05:37:00,
2013-07-28 01:40:00,72.9,68.4,29.80,SSE,158,0.0,0.0,86,0.00,,---,0.00,VWS V14.01,2013-07-28 05:40:00,
2013-07-28 01:42:00,72.9,68.4,29.79,SSE,158,0.0,0.0,86,0.00,,---,0.00,VWS V14.01,2013-07-28 05:42:00,
2013-07-28 01:45:00,72.7,68.3,29.80,SSE,158,0.0,0.0,86,0.00,,---,0.00,VWS V14.01,2013-07-28 05:45:00,
2013-07-28 01:47:00,72.7,68.3,29.79,SSE,158,0.0,0.0,86,0.00,,---,0.00,VWS V14.01,2013-07-28 05:47:00,
2013-07-28 01:50:00,72.7,68.3,29.80,SSE,158,0.0,0.0,86,0.00,,---,0.00,VWS V14.01,2013-07-28 05:50:00,
2013-07-28 01:52:00,72.7,68.3,29.79,SSE,158,0.0,0.0,86,0.00,,---,0.00,VWS V14.01,2013-07-28 05:52:00,
2013-07-28 01:55:00,72.7,68.3,29.80,SSE,158,0.0,0.0,86,0.00,,---,0.00,VWS V14.01,2013-07-28 05:55:00,
2013-07-28 01:57:00,72.7,68.3,29.79,SSE,158,0.0,0.0,86,0.00,,---,0.00,VWS V14.01,2013-07-28 05:57:00,
2013-07-28 02:00:00,72.5,68.4,29.80,SSE,158,0.0,0.0,87,0.00,,---,0.00,VWS V14.01,2013-07-28 06:00:00,
2013-07-28 02:02:00,72.5,68.4,29.79,SSE,158,0.0,0.0,87,0.00,,---,0.00,VWS V14.01,2013-07-28 06:02:00,
2013-07-28 02:05:00,72.5,68.4,29.80,SSE,158,0.0,0.0,87,0.00,,---,0.00,VWS V14.01,2013-07-28 06:05:00,
2013-07-28 02:07:00,72.5,68.4,29.79,SSE,158,0.0,0.0,87,0.00,,---,0.00,VWS V14.01,2013-07-28 06:07:00,
2013-07-28 02:10:00,72.5,68.4,29.80,SSE,158,0.0,0.0,87,0.00,,---,0.00,VWS V14.01,2013-07-28 06:10:00,
2013-07-28 02:12:00,72.5,68.8,29.79,SSE,158,0.0,0.0,88,0.00,,---,0.00,VWS V14.01,2013-07-28 06:12:00,
2013-07-28 02:15:00,72.5,68.8,29.80,SSE,158,0.0,0.0,88,0.00,,---,0.00,VWS V14.01,2013-07-28 06:15:00,
2013-07-28 02:17:00,72.5,68.8,29.79,SSE,158,0.0,0.0,88,0.00,,---,0.00,VWS V14.01,2013-07-28 06:17:00,
2013-07-28 02:20:00,72.5,68.8,29.80,SSE,158,0.0,0.0,88,0.00,,---,0.00,VWS V14.01,2013-07-28 06:20:00,
2013-07-28 02:22:00,72.5,68.8,29.79,SSE,158,0.0,0.0,88,0.00,,---,0.00,VWS V14.01,2013-07-28 06:22:00,
2013-07-28 02:25:00,72.5,68.8,29.80,SSE,158,0.0,0.0,88,0.00,,---,0.00,VWS V14.01,2013-07-28 06:25:00,
2013-07-28 02:27:00,72.3,68.6,29.76,SSE,158,0.0,0.0,88,0.00,,---,0.00,VWS V14.01,2013-07-28 06:27:00,
2013-07-28 02:30:00,72.3,68.6,29.76,SSE,158,0.0,0.0,88,0.00,,---,0.00,VWS V14.01,2013-07-28 06:30:00,
2013-07-28 02:32:00,72.3,68.6,29.76,SSE,158,0.0,0.0,88,0.00,,---,0.00,VWS V14.01,2013-07-28 06:32:00,
2013-07-28 02:35:00,72.3,68.6,29.76,SSE,158,0.0,0.0,88,0.00,,---,0.00,VWS V14.01,2013-07-28 06:35:00,
2013-07-28 02:37:00,72.5,68.8,29.76,SSE,158,0.0,0.0,88,0.00,,---,0.00,VWS V14.01,2013-07-28 06:37:00,
2013-07-28 02:40:00,72.3,68.6,29.76,SSE,158,0.0,0.0,88,0.00,,---,0.00,VWS V14.01,2013-07-28 06:40:00,
2013-07-28 02:42:00,72.3,68.6,29.76,SSE,158,0.0,0.0,88,0.00,,---,0.00,VWS V14.01,2013-07-28 06:42:00,
2013-07-28 02:45:00,72.5,69.1,29.76,SSE,158,0.0,0.0,89,0.00,,---,0.00,VWS V14.01,2013-07-28 06:45:00,
2013-07-28 02:47:00,72.5,69.1,29.76,SSE,158,0.0,0.0,89,0.00,,---,0.00,VWS V14.01,2013-07-28 06:47:00,
2013-07-28 02:50:00,72.5,69.1,29.76,SSE,158,0.0,0.0,89,0.00,,---,0.00,VWS V14.01,2013-07-28 06:50:00,
2013-07-28 02:52:00,72.7,69.3,29.76,SSE,158,0.0,0.0,89,0.00,,---,0.00,VWS V14.01,2013-07-28 06:52:00,
2013-07-28 02:55:00,72.5,69.1,29.76,SSE,158,0.0,0.0,89,0.00,,---,0.00,VWS V14.01,2013-07-28 06:55:00,
2013-07-28 02:57:00,72.5,69.1,29.76,SSE,158,0.0,0.0,89,0.00,,---,0.00,VWS V14.01,2013-07-28 06:57:00,
2013-07-28 03:00:00,72.5,69.1,29.76,SSE,158,0.0,0.0,89,0.00,,---,0.00,VWS V14.01,2013-07-28 07:00:00,
2013-07-28 03:02:00,72.5,69.4,29.76,SSE,158,0.0,0.0,90,0.00,,---,0.00,VWS V14.01,2013-07-28 07:02:00,
2013-07-28 03:05:00,72.9,69.8,29.76,South,180,1.1,1.3,90,0.00,,---,0.00,VWS V14.01,2013-07-28 07:05:00,
2013-07-28 03:07:00,72.9,69.8,29.76,South,180,1.3,1.3,90,0.00,,---,0.00,VWS V14.01,2013-07-28 07:07:00,
2013-07-28 03:10:00,73.0,70.3,29.76,South,180,0.0,1.3,91,0.00,,---,0.00,VWS V14.01,2013-07-28 07:10:00,
2013-07-28 03:12:00,72.9,69.8,29.76,South,180,0.0,0.0,90,0.00,,---,0.00,VWS V14.01,2013-07-28 07:12:00,
2013-07-28 03:15:00,72.9,69.8,29.76,South,180,0.0,0.0,90,0.00,,---,0.00,VWS V14.01,2013-07-28 07:15:00,
2013-07-28 03:17:00,72.7,69.6,29.76,South,180,0.0,0.0,90,0.00,,---,0.00,VWS V14.01,2013-07-28 07:17:00,
2013-07-28 03:20:00,72.7,69.6,29.76,South,180,0.0,0.0,90,0.00,,---,0.00,VWS V14.01,2013-07-28 07:20:00,
2013-07-28 03:22:00,72.7,69.6,29.76,South,180,0.0,0.0,90,0.00,,---,0.00,VWS V14.01,2013-07-28 07:22:00,
2013-07-28 03:25:00,72.7,69.6,29.76,South,180,0.0,0.0,90,0.00,,---,0.00,VWS V14.01,2013-07-28 07:25:00,
2013-07-28 03:27:00,72.7,69.6,29.76,South,180,0.0,0.0,90,0.00,,---,0.00,VWS V14.01,2013-07-28 07:27:00,
2013-07-28 03:30:00,72.7,69.6,29.76,South,180,0.0,0.0,90,0.00,,---,0.00,VWS V14.01,2013-07-28 07:30:00,
2013-07-28 03:32:00,72.7,69.6,29.76,South,180,0.0,0.0,90,0.00,,---,0.00,VWS V14.01,2013-07-28 07:32:00,
2013-07-28 03:35:00,72.7,69.6,29.76,South,180,0.0,0.0,90,0.00,,---,0.00,VWS V14.01,2013-07-28 07:35:00,
2013-07-28 03:37:00,72.5,69.4,29.76,South,180,0.0,0.0,90,0.00,,---,0.00,VWS V14.01,2013-07-28 07:37:00,
2013-07-28 03:40:00,72.5,69.4,29.76,South,180,0.0,0.0,90,0.00,,---,0.00,VWS V14.01,2013-07-28 07:40:00,
2013-07-28 03:42:00,72.5,69.4,29.76,South,180,0.0,0.0,90,0.00,,---,0.00,VWS V14.01,2013-07-28 07:42:00,
2013-07-28 03:45:00,72.5,69.4,29.76,South,180,0.0,0.0,90,0.00,,---,0.00,VWS V14.01,2013-07-28 07:45:00,
2013-07-28 03:47:00,72.5,69.4,29.76,South,180,0.0,0.0,90,0.00,,---,0.00,VWS V14.01,2013-07-28 07:47:00,
2013-07-28 03:50:00,72.3,69.2,29.76,South,180,0.0,0.0,90,0.00,,---,0.00,VWS V14.01,2013-07-28 07:50:00,
2013-07-28 03:52:00,72.3,69.6,29.76,South,180,0.0,0.0,91,0.00,,---,0.00,VWS V14.01,2013-07-28 07:52:00,
2013-07-28 03:55:00,72.1,69.4,29.76,South,180,0.0,0.0,91,0.00,,---,0.00,VWS V14.01,2013-07-28 07:55:00,
2013-07-28 03:57:00,72.1,69.4,29.76,South,180,0.0,0.0,91,0.00,,---,0.00,VWS V14.01,2013-07-28 07:57:00,
2013-07-28 04:00:00,72.1,69.4,29.76,South,180,0.0,0.0,91,0.00,,---,0.00,VWS V14.01,2013-07-28 08:00:00,
2013-07-28 04:02:00,72.3,69.2,29.76,South,180,0.0,0.0,90,0.00,,---,0.00,VWS V14.01,2013-07-28 08:02:00,
2013-07-28 04:05:00,72.3,69.2,29.76,South,180,0.0,0.0,90,0.00,,---,0.00,VWS V14.01,2013-07-28 08:05:00,
2013-07-28 04:07:00,72.3,69.2,29.76,South,180,0.0,0.0,90,0.00,,---,0.00,VWS V14.01,2013-07-28 08:07:00,
2013-07-28 04:10:00,72.3,69.6,29.76,South,180,0.0,0.0,91,0.00,,---,0.00,VWS V14.01,2013-07-28 08:10:00,
2013-07-28 04:12:00,72.3,69.6,29.76,South,180,0.0,0.0,91,0.00,,---,0.00,VWS V14.01,2013-07-28 08:12:00,
2013-07-28 04:15:00,72.3,69.6,29.76,South,180,0.0,0.0,91,0.00,,---,0.00,VWS V14.01,2013-07-28 08:15:00,
2013-07-28 04:17:00,72.3,69.6,29.76,South,180,0.0,0.0,91,0.00,,---,0.00,VWS V14.01,2013-07-28 08:17:00,
2013-07-28 04:20:00,72.3,69.6,29.76,South,180,0.0,0.0,91,0.00,,---,0.00,VWS V14.01,2013-07-28 08:20:00,
2013-07-28 04:22:00,72.1,69.4,29.76,South,180,0.0,0.0,91,0.00,,---,0.00,VWS V14.01,2013-07-28 08:22:00,
2013-07-28 04:25:00,72.3,69.6,29.76,South,180,0.0,0.0,91,0.00,,---,0.00,VWS V14.01,2013-07-28 08:25:00,
2013-07-28 04:27:00,72.3,69.6,29.76,South,180,0.0,0.0,91,0.00,,---,0.00,VWS V14.01,2013-07-28 08:27:00,
2013-07-28 04:30:00,72.1,69.4,29.76,East,90,2.5,2.5,91,0.00,,---,0.00,VWS V14.01,2013-07-28 08:30:00,
2013-07-28 04:32:00,72.0,69.2,29.76,ESE,112,0.0,2.5,91,0.00,,---,0.00,VWS V14.01,2013-07-28 08:32:00,
2013-07-28 04:35:00,72.1,69.7,29.76,SE,135,0.0,2.5,92,0.00,,---,0.00,VWS V14.01,2013-07-28 08:35:00,
2013-07-28 04:37:00,72.1,69.7,29.76,SE,135,0.0,0.0,92,0.00,,---,0.00,VWS V14.01,2013-07-28 08:37:00,
2013-07-28 04:40:00,72.1,69.7,29.76,SE,135,0.0,0.0,92,0.00,,---,0.00,VWS V14.01,2013-07-28 08:40:00,
2013-07-28 04:42:00,72.1,69.7,29.76,SSE,158,0.0,0.0,92,0.00,,---,0.00,VWS V14.01,2013-07-28 08:42:00,
2013-07-28 04:45:00,72.1,69.7,29.76,SSE,158,0.0,0.0,92,0.00,,---,0.00,VWS V14.01,2013-07-28 08:45:00,
2013-07-28 04:47:00,72.0,69.5,29.76,SSE,158,0.0,0.0,92,0.00,,---,0.00,VWS V14.01,2013-07-28 08:47:00,
2013-07-28 04:50:00,72.0,69.5,29.76,SSE,158,0.0,0.0,92,0.00,,---,0.00,VWS V14.01,2013-07-28 08:50:00,
2013-07-28 04:52:00,72.0,69.5,29.76,SSE,158,0.0,0.0,92,0.00,,---,0.00,VWS V14.01,2013-07-28 08:52:00,
2013-07-28 04:55:00,72.0,69.5,29.76,SSE,158,0.0,0.0,92,0.00,,---,0.00,VWS V14.01,2013-07-28 08:55:00,
2013-07-28 04:57:00,72.0,69.5,29.76,SSE,158,0.0,0.0,92,0.00,,---,0.00,VWS V14.01,2013-07-28 08:57:00,
2013-07-28 05:00:00,72.0,69.5,29.76,SSE,158,0.0,0.0,92,0.00,,---,0.00,VWS V14.01,2013-07-28 09:00:00,
2013-07-28 05:02:00,72.1,69.7,29.76,WSW,248,0.0,0.0,92,0.00,,---,0.00,VWS V14.01,2013-07-28 09:02:00,
2013-07-28 05:05:00,72.1,69.7,29.76,WSW,248,0.0,0.0,92,0.00,,---,0.00,VWS V14.01,2013-07-28 09:05:00,
2013-07-28 05:07:00,72.1,70.0,29.76,WSW,248,0.0,0.0,93,0.00,,---,0.00,VWS V14.01,2013-07-28 09:07:00,
2013-07-28 05:10:00,72.1,69.7,29.76,WSW,248,0.0,0.0,92,0.00,,---,0.00,VWS V14.01,2013-07-28 09:10:00,
2013-07-28 05:12:00,72.1,69.7,29.76,WSW,248,0.0,0.0,92,0.00,,---,0.00,VWS V14.01,2013-07-28 09:12:00,
2013-07-28 05:15:00,72.1,69.7,29.76,SE,135,0.0,1.6,92,0.00,,---,0.00,VWS V14.01,2013-07-28 09:15:00,
2013-07-28 05:17:00,72.0,69.5,29.76,SE,135,1.3,2.0,92,0.00,,---,0.00,VWS V14.01,2013-07-28 09:17:00,
2013-07-28 05:20:00,72.0,69.5,29.76,SE,135,0.9,2.0,92,0.00,,---,0.00,VWS V14.01,2013-07-28 09:20:00,
2013-07-28 05:22:00,72.0,69.5,29.76,SE,135,0.0,1.1,92,0.00,,---,0.00,VWS V14.01,2013-07-28 09:22:00,
2013-07-28 05:25:00,72.0,69.5,29.76,SE,135,0.0,1.1,92,0.00,,---,0.00,VWS V14.01,2013-07-28 09:25:00,
2013-07-28 05:27:00,72.0,69.5,29.79,SE,135,0.0,0.0,92,0.00,,---,0.00,VWS V14.01,2013-07-28 09:27:00,
2013-07-28 05:30:00,72.0,69.5,29.80,SE,135,0.0,0.0,92,0.00,,---,0.00,VWS V14.01,2013-07-28 09:30:00,
2013-07-28 05:32:00,71.8,69.3,29.79,SE,135,0.0,0.0,92,0.00,,---,0.00,VWS V14.01,2013-07-28 09:32:00,
2013-07-28 05:35:00,71.8,69.7,29.80,SE,135,0.0,0.0,93,0.00,,---,0.00,VWS V14.01,2013-07-28 09:35:00,
2013-07-28 05:40:00,71.8,69.7,29.79,SSE,158,0.0,0.0,93,0.00,,---,0.00,VWS V14.01,2013-07-28 09:40:00,
2013-07-28 05:45:00,71.8,69.7,29.76,SSE,158,0.0,0.0,93,0.00,,---,0.00,VWS V14.01,2013-07-28 09:45:00,
2013-07-28 05:50:00,71.6,69.5,29.76,SSE,158,0.0,0.0,93,0.00,,---,0.00,VWS V14.01,2013-07-28 09:50:00,
2013-07-28 05:55:00,71.6,69.5,29.76,SSE,158,0.0,0.0,93,0.00,,---,0.00,VWS V14.01,2013-07-28 09:55:00,
2013-07-28 06:00:00,71.8,69.7,29.79,SSE,158,0.0,0.0,93,0.00,,---,0.00,VWS V14.01,2013-07-28 10:00:00,
2013-07-28 06:05:00,71.8,69.7,29.79,SSE,158,0.0,0.0,93,0.00,,---,0.00,VWS V14.01,2013-07-28 10:05:00,
2013-07-28 06:10:00,71.8,69.7,29.79,SSE,158,0.0,0.0,93,0.00,,---,0.00,VWS V14.01,2013-07-28 10:10:00,
2013-07-28 06:15:00,71.6,69.5,29.76,SSE,158,0.0,0.0,93,0.00,,---,0.00,VWS V14.01,2013-07-28 10:15:00,
2013-07-28 06:20:00,71.4,69.3,29.76,SSE,158,0.0,1.3,93,0.00,,---,0.00,VWS V14.01,2013-07-28 10:20:00,
2013-07-28 06:25:00,71.6,69.5,29.76,SSE,158,0.0,0.0,93,0.00,,---,0.00,VWS V14.01,2013-07-28 10:25:00,
2013-07-28 06:30:00,71.4,69.6,29.79,SSE,158,0.0,0.0,94,0.00,,---,0.00,VWS V14.01,2013-07-28 10:30:00,
2013-07-28 06:35:00,71.2,69.1,29.79,SSE,158,0.0,0.0,93,0.00,,---,0.00,VWS V14.01,2013-07-28 10:35:00,
2013-07-28 06:40:00,71.4,69.3,29.79,SSE,158,0.0,0.0,93,0.00,,---,0.00,VWS V14.01,2013-07-28 10:40:00,
2013-07-28 06:45:00,71.2,69.4,29.76,SSE,158,0.0,0.0,94,0.00,,---,0.00,VWS V14.01,2013-07-28 10:45:00,
2013-07-28 06:50:00,71.4,69.6,29.76,SSE,158,0.0,0.0,94,0.00,,---,0.00,VWS V14.01,2013-07-28 10:50:00,
2013-07-28 06:55:00,71.4,69.6,29.76,SSE,158,0.0,0.0,94,0.00,,---,0.00,VWS V14.01,2013-07-28 10:55:00,
2013-07-28 07:00:00,71.6,69.8,29.79,SSE,158,0.0,0.0,94,0.00,,---,0.00,VWS V14.01,2013-07-28 11:00:00,
2013-07-28 07:05:00,72.0,70.1,29.79,SSE,158,0.0,0.0,94,0.00,,---,0.00,VWS V14.01,2013-07-28 11:05:00,
2013-07-28 07:10:00,72.1,70.3,29.79,SSE,158,0.0,0.0,94,0.00,,---,0.00,VWS V14.01,2013-07-28 11:10:00,
2013-07-28 07:15:00,72.3,70.5,29.79,SSE,158,0.0,0.0,94,0.00,,---,0.00,VWS V14.01,2013-07-28 11:15:00,
2013-07-28 07:20:00,73.0,71.5,29.79,SSE,158,0.0,0.0,95,0.00,,---,0.00,VWS V14.01,2013-07-28 11:20:00,
2013-07-28 07:25:00,73.2,71.7,29.79,SSE,158,0.0,0.0,95,0.00,,---,0.00,VWS V14.01,2013-07-28 11:25:00,
2013-07-28 07:30:00,74.1,72.3,29.79,East,90,1.1,1.1,94,0.00,,---,0.00,VWS V14.01,2013-07-28 11:30:00,
2013-07-28 07:35:00,75.0,73.5,29.79,East,90,1.3,2.0,95,0.00,,---,0.00,VWS V14.01,2013-07-28 11:35:00,
2013-07-28 07:40:00,75.2,73.4,29.79,East,90,1.6,2.2,94,0.00,,---,0.00,VWS V14.01,2013-07-28 11:40:00,
2013-07-28 07:45:00,76.6,74.8,29.79,East,90,2.5,2.7,94,0.00,,---,0.00,VWS V14.01,2013-07-28 11:45:00,
2013-07-28 07:50:00,77.9,75.7,29.79,SSE,158,0.0,2.5,93,0.00,,---,0.00,VWS V14.01,2013-07-28 11:50:00,
2013-07-28 07:55:00,78.4,76.2,29.79,SSE,158,0.0,2.0,93,0.00,,---,0.00,VWS V14.01,2013-07-28 11:55:00,
2013-07-28 08:00:00,79.5,77.0,29.79,SE,135,1.3,1.3,92,0.00,,---,0.00,VWS V14.01,2013-07-28 12:00:00,
2013-07-28 08:05:00,80.2,76.7,29.79,ENE,68,2.7,3.6,89,0.00,,---,0.00,VWS V14.01,2013-07-28 12:05:00,
2013-07-28 08:10:00,81.1,76.6,29.79,East,90,3.1,3.1,86,0.00,,---,0.00,VWS V14.01,2013-07-28 12:10:00,
2013-07-28 08:15:00,81.5,75.1,29.79,ESE,112,0.0,3.1,81,0.00,,---,0.00,VWS V14.01,2013-07-28 12:15:00,
2013-07-28 08:20:00,81.1,74.0,29.79,SSE,158,0.0,2.0,79,0.00,,---,0.00,VWS V14.01,2013-07-28 12:20:00,
2013-07-28 08:25:00,80.8,73.7,29.79,SE,135,0.0,1.3,79,0.00,,---,0.00,VWS V14.01,2013-07-28 12:25:00,
2013-07-28 08:30:00,80.4,72.6,29.82,SE,135,0.0,2.2,77,0.00,,---,0.00,VWS V14.01,2013-07-28 12:30:00,
2013-07-28 08:35:00,80.4,72.6,29.82,East,90,0.0,1.6,77,0.00,,---,0.00,VWS V14.01,2013-07-28 12:35:00,
2013-07-28 08:40:00,81.1,72.9,29.82,East,90,1.3,2.2,76,0.00,,---,0.00,VWS V14.01,2013-07-28 12:40:00,
2013-07-28 08:45:00,81.7,73.0,29.82,SSE,158,0.9,2.5,75,0.00,,---,0.00,VWS V14.01,2013-07-28 12:45:00,
2013-07-28 08:50:00,81.3,70.2,29.82,SSE,158,2.2,3.1,69,0.00,,---,0.00,VWS V14.01,2013-07-28 12:50:00,
2013-07-28 08:55:00,83.5,73.5,29.82,SSE,158,1.3,2.5,72,0.00,,---,0.00,VWS V14.01,2013-07-28 12:55:00,
2013-07-28 09:00:00,84.9,73.6,29.82,SE,135,0.0,2.5,69,0.00,,---,0.00,VWS V14.01,2013-07-28 13:00:00,
2013-07-28 09:05:00,83.8,69.9,29.82,SSE,158,1.3,2.7,63,0.00,,---,0.00,VWS V14.01,2013-07-28 13:05:00,
2013-07-28 09:10:00,84.0,71.4,29.82,East,90,0.9,2.7,66,0.00,,---,0.00,VWS V14.01,2013-07-28 13:10:00,
2013-07-28 09:13:00,84.9,72.3,29.79,West,270,1.3,1.6,66,0.00,,---,0.00,VWS V14.01,2013-07-28 13:13:00,
2013-07-28 09:15:00,86.2,73.0,29.80,West,270,1.3,2.9,65,0.00,,---,0.00,VWS V14.01,2013-07-28 13:15:00,
2013-07-28 09:18:00,86.0,72.9,29.79,West,270,0.0,1.3,65,0.00,,---,0.00,VWS V14.01,2013-07-28 13:18:00,
2013-07-28 09:20:00,85.6,72.5,29.80,SE,135,1.3,1.6,65,0.00,,---,0.00,VWS V14.01,2013-07-28 13:20:00,
2013-07-28 09:23:00,84.7,71.2,29.79,SSE,158,1.1,2.5,64,0.00,,---,0.00,VWS V14.01,2013-07-28 13:23:00,
2013-07-28 09:25:00,84.7,70.8,29.80,SSE,158,0.9,2.5,63,0.00,,---,0.00,VWS V14.01,2013-07-28 13:25:00,
2013-07-28 09:28:00,84.4,70.9,29.79,SSE,158,0.0,1.6,64,0.00,,---,0.00,VWS V14.01,2013-07-28 13:28:00,
2013-07-28 09:30:00,84.4,70.9,29.80,NNE,22,2.2,2.5,64,0.00,,---,0.00,VWS V14.01,2013-07-28 13:30:00,
2013-07-28 09:33:00,85.3,71.7,29.79,South,180,0.0,2.5,64,0.00,,---,0.00,VWS V14.01,2013-07-28 13:33:00,
2013-07-28 09:35:00,85.1,71.6,29.80,NNW,338,1.6,2.5,64,0.00,,---,0.00,VWS V14.01,2013-07-28 13:35:00,
2013-07-28 09:38:00,85.1,71.6,29.79,SSE,158,0.0,1.6,64,0.00,,---,0.00,VWS V14.01,2013-07-28 13:38:00,
2013-07-28 09:40:00,85.1,71.6,29.80,SSE,158,0.0,1.6,64,0.00,,---,0.00,VWS V14.01,2013-07-28 13:40:00,
2013-07-28 09:43:00,85.5,71.9,29.82,South,180,0.0,0.0,64,0.00,,---,0.00,VWS V14.01,2013-07-28 13:43:00,
2013-07-28 09:45:00,85.5,71.9,29.82,South,180,1.3,1.6,64,0.00,,---,0.00,VWS V14.01,2013-07-28 13:45:00,
2013-07-28 09:48:00,85.5,71.9,29.82,SSE,158,1.3,2.0,64,0.00,,---,0.00,VWS V14.01,2013-07-28 13:48:00,
2013-07-28 09:50:00,85.3,71.3,29.82,ESE,112,1.3,2.5,63,0.00,,---,0.00,VWS V14.01,2013-07-28 13:50:00,
2013-07-28 09:53:00,85.6,72.1,29.82,East,90,1.1,1.3,64,0.00,,---,0.00,VWS V14.01,2013-07-28 13:53:00,
2013-07-28 09:55:00,85.8,72.2,29.82,WNW,292,1.3,2.0,64,0.00,,---,0.00,VWS V14.01,2013-07-28 13:55:00,
2013-07-28 09:58:00,86.5,72.5,29.82,West,270,1.1,3.1,63,0.00,,---,0.00,VWS V14.01,2013-07-28 13:58:00,
2013-07-28 10:00:00,87.1,72.5,29.82,ENE,68,1.6,3.1,62,0.00,,---,0.00,VWS V14.01,2013-07-28 14:00:00,
2013-07-28 10:03:00,87.1,72.0,29.82,South,180,2.9,2.9,61,0.00,,---,0.00,VWS V14.01,2013-07-28 14:03:00,
2013-07-28 10:05:00,85.6,69.7,29.82,South,180,2.2,3.8,59,0.00,,---,0.00,VWS V14.01,2013-07-28 14:05:00,
2013-07-28 10:08:00,85.5,70.5,29.82,South,180,0.0,2.2,61,0.00,,---,0.00,VWS V14.01,2013-07-28 14:08:00,
2013-07-28 10:10:00,85.8,70.8,29.82,South,180,0.0,2.2,61,0.00,,---,0.00,VWS V14.01,2013-07-28 14:10:00,
2013-07-28 10:13:00,86.5,71.5,29.82,South,180,1.1,2.0,61,0.00,,---,0.00,VWS V14.01,2013-07-28 14:13:00,
2013-07-28 10:15:00,86.4,71.3,29.82,South,180,0.0,2.0,61,0.00,,---,0.00,VWS V14.01,2013-07-28 14:15:00,
2013-07-28 10:18:00,86.5,71.5,29.82,ESE,112,2.2,2.7,61,0.00,,---,0.00,VWS V14.01,2013-07-28 14:18:00,
2013-07-28 10:20:00,87.1,72.0,29.82,South,180,0.0,2.7,61,0.00,,---,0.00,VWS V14.01,2013-07-28 14:20:00,
2013-07-28 10:23:00,87.1,71.5,29.82,ENE,68,0.9,2.2,60,0.00,,---,0.00,VWS V14.01,2013-07-28 14:23:00,
2013-07-28 10:25:00,87.1,72.0,29.82,SSW,202,1.1,2.2,61,0.00,,---,0.00,VWS V14.01,2013-07-28 14:25:00,
2013-07-28 10:28:00,87.1,71.5,29.82,WNW,292,1.6,2.5,60,0.00,,---,0.00,VWS V14.01,2013-07-28 14:28:00,
2013-07-28 10:30:00,87.1,72.0,29.82,WSW,248,0.0,2.5,61,0.00,,---,0.00,VWS V14.01,2013-07-28 14:30:00,
2013-07-28 10:33:00,86.4,71.3,29.82,South,180,0.0,1.3,61,0.00,,---,0.00,VWS V14.01,2013-07-28 14:33:00,
2013-07-28 10:35:00,86.4,71.3,29.82,NNE,22,1.1,1.6,61,0.00,,---,0.00,VWS V14.01,2013-07-28 14:35:00,
2013-07-28 10:38:00,87.1,71.0,29.82,WNW,292,1.6,2.9,59,0.00,,---,0.00,VWS V14.01,2013-07-28 14:38:00,
2013-07-28 10:40:00,87.1,70.5,29.82,WSW,248,1.6,2.9,58,0.00,,---,0.00,VWS V14.01,2013-07-28 14:40:00,
2013-07-28 10:43:00,88.0,71.4,29.82,West,270,0.0,2.2,58,0.00,,---,0.00,VWS V14.01,2013-07-28 14:43:00,
2013-07-28 10:45:00,88.2,70.0,29.82,WSW,248,0.0,2.2,55,0.00,,---,0.00,VWS V14.01,2013-07-28 14:45:00,
2013-07-28 10:50:00,85.3,71.3,29.82,ESE,112,1.3,2.5,63,0.00,,---,0.00,VWS V14.01,2013-07-28 14:50:00,
2013-07-28 10:55:00,85.8,72.2,29.82,WNW,292,1.3,2.0,64,0.00,,---,0.00,VWS V14.01,2013-07-28 14:55:00,
2013-07-28 11:00:00,87.1,72.5,29.82,ENE,68,1.6,3.1,62,0.00,,---,0.00,VWS V14.01,2013-07-28 15:00:00,
2013-07-28 11:05:00,85.6,69.7,29.82,South,180,2.2,3.8,59,0.00,,---,0.00,VWS V14.01,2013-07-28 15:05:00,
2013-07-28 11:10:00,85.8,70.8,29.82,South,180,0.0,2.2,61,0.00,,---,0.00,VWS V14.01,2013-07-28 15:10:00,
2013-07-28 11:15:00,86.4,71.3,29.82,South,180,0.0,2.0,61,0.00,,---,0.00,VWS V14.01,2013-07-28 15:15:00,
2013-07-28 11:20:00,87.1,72.0,29.82,South,180,0.0,2.7,61,0.00,,---,0.00,VWS V14.01,2013-07-28 15:20:00,
2013-07-28 11:25:00,87.1,72.0,29.82,SSW,202,1.1,2.2,61,0.00,,---,0.00,VWS V14.01,2013-07-28 15:25:00,
2013-07-28 11:30:00,87.1,72.0,29.82,WSW,248,0.0,2.5,61,0.00,,---,0.00,VWS V14.01,2013-07-28 15:30:00,
2013-07-28 11:35:00,86.4,71.3,29.82,NNE,22,1.1,1.6,61,0.00,,---,0.00,VWS V14.01,2013-07-28 15:35:00,
2013-07-28 11:40:00,87.1,70.5,29.82,WSW,248,1.6,2.9,58,0.00,,---,0.00,VWS V14.01,2013-07-28 15:40:00,
2013-07-28 11:45:00,88.2,70.0,29.82,WSW,248,0.0,2.2,55,0.00,,---,0.00,VWS V14.01,2013-07-28 15:45:00,
2013-07-28 13:01:00,94.8,62.1,29.82,South,180,1.3,1.3,34,0.00,,---,0.00,VWS V14.01,2013-07-28 17:01:00,
2013-07-28 13:06:00,95.9,63.0,29.82,South,180,3.1,3.4,34,0.00,,---,0.00,VWS V14.01,2013-07-28 17:06:00,
2013-07-28 13:11:00,95.2,61.6,29.82,NNE,22,1.1,4.0,33,0.00,,---,0.00,VWS V14.01,2013-07-28 17:11:00,
2013-07-28 13:16:00,93.6,62.6,29.82,SSW,202,0.0,0.0,36,0.00,,---,0.00,VWS V14.01,2013-07-28 17:16:00,
2013-07-28 13:21:00,92.3,62.3,29.82,SSW,202,0.0,2.2,37,0.00,,---,0.00,VWS V14.01,2013-07-28 17:21:00,
2013-07-28 13:26:00,93.0,62.9,29.82,WSW,248,0.9,2.0,37,0.00,,---,0.00,VWS V14.01,2013-07-28 17:26:00,
2013-07-28 13:31:00,92.7,62.6,29.82,WSW,248,0.0,0.0,37,0.00,,---,0.00,VWS V14.01,2013-07-28 17:31:00,
2013-07-28 13:36:00,92.3,62.3,29.82,West,270,1.1,1.6,37,0.00,,---,0.00,VWS V14.01,2013-07-28 17:36:00,
2013-07-28 13:41:00,91.2,62.1,29.82,West,270,1.1,1.3,38,0.00,,---,0.00,VWS V14.01,2013-07-28 17:41:00,
2013-07-28 13:46:00,89.8,61.5,29.82,South,180,0.0,0.0,39,0.00,,---,0.00,VWS V14.01,2013-07-28 17:46:00,
2013-07-28 13:51:00,89.2,61.8,29.82,ESE,112,0.0,1.3,40,0.00,,---,0.00,VWS V14.01,2013-07-28 17:51:00,
2013-07-28 13:56:00,89.4,61.9,29.82,South,180,1.3,1.6,40,0.00,,---,0.00,VWS V14.01,2013-07-28 17:56:00,
2013-07-28 14:01:00,90.0,63.1,29.82,SSE,158,0.0,0.0,41,0.00,,---,0.00,VWS V14.01,2013-07-28 18:01:00,
2013-07-28 14:05:00,96.1,64.0,29.82,South,180,0.0,2.7,35,0.00,,---,0.00,VWS V14.01,2013-07-28 18:05:00,
2013-07-28 14:06:00,89.8,62.3,29.82,WNW,292,2.0,2.0,40,0.00,,---,0.00,VWS V14.01,2013-07-28 18:06:00,
2013-07-28 14:10:00,95.7,62.0,29.82,ENE,68,2.2,3.4,33,0.00,,---,0.00,VWS V14.01,2013-07-28 18:10:00,
2013-07-28 14:11:00,90.9,63.2,29.82,South,180,2.7,2.9,40,0.00,,---,0.00,VWS V14.01,2013-07-28 18:11:00,
2013-07-28 14:15:00,93.6,62.6,29.82,SSW,202,0.0,4.0,36,0.00,,---,0.00,VWS V14.01,2013-07-28 18:15:00,
2013-07-28 14:16:00,92.5,64.7,29.79,SSE,158,0.0,2.0,40,0.00,,---,0.00,VWS V14.01,2013-07-28 18:16:00,
2013-07-28 14:20:00,92.3,62.3,29.82,SSE,158,2.2,2.7,37,0.00,,---,0.00,VWS V14.01,2013-07-28 18:20:00,
2013-07-28 14:21:00,92.7,63.4,29.79,SSW,202,0.0,2.5,38,0.00,,---,0.00,VWS V14.01,2013-07-28 18:21:00,
2013-07-28 14:25:00,93.0,62.9,29.82,WNW,292,1.1,2.2,37,0.00,,---,0.00,VWS V14.01,2013-07-28 18:25:00,
2013-07-28 14:26:00,92.3,61.5,29.79,WSW,248,2.5,2.9,36,0.00,,---,0.00,VWS V14.01,2013-07-28 18:26:00,
2013-07-28 14:30:00,93.0,62.9,29.82,WSW,248,0.0,2.9,37,0.00,,---,0.00,VWS V14.01,2013-07-28 18:30:00,
2013-07-28 14:31:00,92.7,63.4,29.79,NNE,22,1.6,1.6,38,0.00,,---,0.00,VWS V14.01,2013-07-28 18:31:00,
2013-07-28 14:35:00,92.3,62.3,29.82,West,270,1.3,2.0,37,0.00,,---,0.00,VWS V14.01,2013-07-28 18:35:00,
2013-07-28 14:36:00,93.7,62.8,29.79,SSE,158,1.1,1.1,36,0.00,,---,0.00,VWS V14.01,2013-07-28 18:36:00,
2013-07-28 14:40:00,91.4,61.5,29.82,NW,315,1.3,1.6,37,0.00,,---,0.00,VWS V14.01,2013-07-28 18:40:00,
2013-07-28 14:41:00,94.3,63.2,29.79,SSE,158,0.0,0.0,36,0.00,,---,0.00,VWS V14.01,2013-07-28 18:41:00,
2013-07-28 14:45:00,90.1,61.1,29.82,South,180,0.0,1.6,38,0.00,,---,0.00,VWS V14.01,2013-07-28 18:45:00,
2013-07-28 14:46:00,95.0,63.1,29.79,ESE,112,1.6,1.6,35,0.00,,---,0.00,VWS V14.01,2013-07-28 18:46:00,
2013-07-28 14:50:00,89.2,61.8,29.82,SW,225,0.0,1.6,40,0.00,,---,0.00,VWS V14.01,2013-07-28 18:50:00,
2013-07-28 14:55:00,92.7,61.0,29.79,South,180,1.1,2.9,35,0.00,,---,0.00,VWS V14.01,2013-07-28 18:55:00,
2013-07-28 15:00:00,91.4,59.9,29.79,South,180,0.0,3.1,35,0.00,,---,0.00,VWS V14.01,2013-07-28 19:00:00,
2013-07-28 15:05:00,90.7,60.9,29.79,WSW,248,0.0,2.7,37,0.00,,---,0.00,VWS V14.01,2013-07-28 19:05:00,
2013-07-28 15:10:00,89.8,60.8,29.79,West,270,1.3,3.4,38,0.00,,---,0.00,VWS V14.01,2013-07-28 19:10:00,
2013-07-28 15:15:00,88.7,61.3,29.79,NNE,22,2.5,3.8,40,0.00,,---,0.00,VWS V14.01,2013-07-28 19:15:00,
2013-07-28 15:20:00,88.5,61.8,29.82,ESE,112,1.1,2.5,41,0.00,,---,0.00,VWS V14.01,2013-07-28 19:20:00,
2013-07-28 15:25:00,88.0,62.0,29.82,NW,315,2.0,4.0,42,0.00,,---,0.00,VWS V14.01,2013-07-28 19:25:00,
2013-07-28 15:30:00,86.9,61.7,29.82,WNW,292,3.1,4.9,43,0.00,,---,0.00,VWS V14.01,2013-07-28 19:30:00,
2013-07-28 15:35:00,83.3,58.5,29.82,WNW,292,4.7,5.8,43,0.00,,---,0.00,VWS V14.01,2013-07-28 19:35:00,
2013-07-28 15:40:00,81.5,58.8,29.82,WNW,292,3.8,9.6,46,0.00,,---,0.00,VWS V14.01,2013-07-28 19:40:00,
2013-07-28 15:45:00,79.9,59.0,29.82,West,270,4.3,9.2,49,0.00,,---,0.00,VWS V14.01,2013-07-28 19:45:00,
2013-07-28 15:50:00,79.2,60.0,29.82,WNW,292,4.0,4.9,52,0.00,,---,0.00,VWS V14.01,2013-07-28 19:50:00,
2013-07-28 15:55:00,78.4,61.0,29.82,NNW,338,2.5,6.0,55,0.00,,---,0.00,VWS V14.01,2013-07-28 19:55:00,
2013-07-28 16:00:00,91.4,59.9,29.80,South,180,0.0,3.1,35,0.00,,---,0.00,VWS V14.01,2013-07-28 20:00:00,
2013-07-28 16:02:00,78.1,62.1,29.85,NNW,338,2.0,3.4,58,0.00,,---,0.00,VWS V14.01,2013-07-28 20:02:00,
2013-07-28 16:05:00,90.7,60.9,29.80,WSW,248,0.0,2.7,37,0.00,,---,0.00,VWS V14.01,2013-07-28 20:05:00,
2013-07-28 16:07:00,77.7,63.2,29.85,East,90,2.9,2.9,61,0.00,,---,0.00,VWS V14.01,2013-07-28 20:07:00,
2013-07-28 16:10:00,89.8,60.8,29.80,West,270,1.3,3.4,38,0.00,,---,0.00,VWS V14.01,2013-07-28 20:10:00,
2013-07-28 16:12:00,77.0,63.9,29.85,ENE,68,2.2,3.4,64,0.00,,---,0.00,VWS V14.01,2013-07-28 20:12:00,
2013-07-28 16:15:00,88.7,61.3,29.80,NNE,22,2.5,3.8,40,0.00,,---,0.00,VWS V14.01,2013-07-28 20:15:00,
2013-07-28 16:17:00,76.8,64.6,29.85,ENE,68,3.8,4.0,66,0.00,,---,0.00,VWS V14.01,2013-07-28 20:17:00,
2013-07-28 16:20:00,88.5,61.8,29.82,ESE,112,1.1,2.5,41,0.00,,---,0.00,VWS V14.01,2013-07-28 20:20:00,
2013-07-28 16:25:00,76.5,66.4,29.85,ESE,112,4.9,7.8,71,0.00,,---,0.00,VWS V14.01,2013-07-28 20:25:00,
2013-07-28 16:30:00,76.3,67.0,29.85,East,90,3.1,8.7,73,0.00,,---,0.00,VWS V14.01,2013-07-28 20:30:00,
2013-07-28 16:35:00,76.3,67.8,29.82,East,90,3.8,4.9,75,0.00,,---,0.00,VWS V14.01,2013-07-28 20:35:00,
2013-07-28 16:40:00,76.3,67.8,29.82,ESE,112,2.9,6.0,75,0.00,,---,0.00,VWS V14.01,2013-07-28 20:40:00,
2013-07-28 16:45:00,76.6,68.1,29.82,ENE,68,4.9,4.9,75,0.00,,---,0.00,VWS V14.01,2013-07-28 20:45:00,
2013-07-28 16:50:00,77.2,67.5,29.82,East,90,2.9,4.9,72,0.00,,---,0.00,VWS V14.01,2013-07-28 20:50:00,
2013-07-28 16:55:00,77.5,66.6,29.82,NNE,22,1.3,4.9,69,0.00,,---,0.00,VWS V14.01,2013-07-28 20:55:00,
2013-07-28 17:00:00,78.1,66.7,29.82,East,90,1.1,3.8,68,0.00,,---,0.00,VWS V14.01,2013-07-28 21:00:00,
2013-07-28 17:05:00,78.3,66.4,29.82,ENE,68,1.3,3.4,67,0.00,,---,0.00,VWS V14.01,2013-07-28 21:05:00,
2013-07-28 17:10:00,78.8,66.5,29.82,ENE,68,0.9,2.7,66,0.00,,---,0.00,VWS V14.01,2013-07-28 21:10:00,
2013-07-28 17:15:00,79.2,66.4,29.82,South,180,0.0,2.0,65,0.00,,---,0.00,VWS V14.01,2013-07-28 21:15:00,
2013-07-28 17:20:00,79.2,66.4,29.82,East,90,1.3,2.0,65,0.00,,---,0.00,VWS V14.01,2013-07-28 21:20:00,
2013-07-28 17:25:00,79.3,66.6,29.82,North,0,1.1,1.3,65,0.00,,---,0.00,VWS V14.01,2013-07-28 21:25:00,
2013-07-28 17:30:00,79.0,65.8,29.82,ENE,68,1.6,2.2,64,0.00,,---,0.00,VWS V14.01,2013-07-28 21:30:00,
2013-07-28 17:35:00,78.6,65.4,29.82,East,90,1.1,2.5,64,0.00,,---,0.00,VWS V14.01,2013-07-28 21:35:00,
2013-07-28 17:40:00,78.3,65.1,29.82,ESE,112,0.9,2.0,64,0.00,,---,0.00,VWS V14.01,2013-07-28 21:40:00,
2013-07-28 17:45:00,78.3,65.5,29.82,WSW,248,1.6,1.6,65,0.00,,---,0.00,VWS V14.01,2013-07-28 21:45:00,
2013-07-28 17:50:00,77.9,65.6,29.82,WSW,248,0.0,2.0,66,0.00,,---,0.00,VWS V14.01,2013-07-28 21:50:00,
2013-07-28 17:55:00,77.5,65.3,29.82,WSW,248,0.9,1.6,66,0.00,,---,0.00,VWS V14.01,2013-07-28 21:55:00,
2013-07-28 18:00:00,77.2,66.2,29.82,South,180,0.0,4.0,69,0.00,,---,0.00,VWS V14.01,2013-07-28 22:00:00,
2013-07-28 18:05:00,78.3,66.4,29.82,ENE,68,1.3,3.4,67,0.00,,---,0.00,VWS V14.01,2013-07-28 22:05:00,
2013-07-28 18:07:00,77.2,65.8,29.85,SW,225,0.0,2.2,68,0.00,,---,0.00,VWS V14.01,2013-07-28 22:07:00,
2013-07-28 18:10:00,78.8,66.5,29.82,ENE,68,0.9,2.7,66,0.00,,---,0.00,VWS V14.01,2013-07-28 22:10:00,
2013-07-28 18:12:00,77.2,66.2,29.85,WNW,292,2.2,2.2,69,0.00,,---,0.00,VWS V14.01,2013-07-28 22:12:00,
2013-07-28 18:15:00,79.2,66.4,29.82,South,180,0.0,2.0,65,0.00,,---,0.00,VWS V14.01,2013-07-28 22:15:00,
2013-07-28 18:17:00,77.2,66.2,29.85,West,270,2.0,2.5,69,0.00,,---,0.00,VWS V14.01,2013-07-28 22:17:00,
2013-07-28 18:20:00,79.2,66.4,29.82,East,90,1.3,2.0,65,0.00,,---,0.00,VWS V14.01,2013-07-28 22:20:00,
2013-07-28 18:22:00,77.0,66.1,29.85,ENE,68,1.6,1.6,69,0.00,,---,0.00,VWS V14.01,2013-07-28 22:22:00,
2013-07-28 18:25:00,79.3,66.6,29.82,North,0,1.1,1.3,65,0.00,,---,0.00,VWS V14.01,2013-07-28 22:25:00,
2013-07-28 18:27:00,76.8,65.5,29.85,West,270,1.6,2.7,68,0.00,,---,0.00,VWS V14.01,2013-07-28 22:27:00,
2013-07-28 18:30:00,79.0,65.8,29.82,ENE,68,1.6,2.2,64,0.00,,---,0.00,VWS V14.01,2013-07-28 22:30:00,
2013-07-28 18:32:00,77.0,65.2,29.85,NW,315,0.9,2.9,67,0.00,,---,0.00,VWS V14.01,2013-07-28 22:32:00,
2013-07-28 18:35:00,78.6,65.4,29.82,East,90,1.1,2.5,64,0.00,,---,0.00,VWS V14.01,2013-07-28 22:35:00,
2013-07-28 18:37:00,76.6,64.9,29.85,West,270,1.6,1.6,67,0.00,,---,0.00,VWS V14.01,2013-07-28 22:37:00,
2013-07-28 18:40:00,78.3,65.1,29.82,ESE,112,0.9,2.0,64,0.00,,---,0.00,VWS V14.01,2013-07-28 22:40:00,
2013-07-28 18:42:00,76.1,64.8,29.85,NNW,338,0.0,2.0,68,0.00,,---,0.00,VWS V14.01,2013-07-28 22:42:00,
2013-07-28 18:45:00,78.3,65.5,29.82,WSW,248,1.6,1.6,65,0.00,,---,0.00,VWS V14.01,2013-07-28 22:45:00,
2013-07-28 18:47:00,75.9,65.4,29.85,East,90,2.2,2.2,70,0.00,,---,0.00,VWS V14.01,2013-07-28 22:47:00,
2013-07-28 18:50:00,77.9,65.6,29.82,WSW,248,0.0,2.0,66,0.00,,---,0.00,VWS V14.01,2013-07-28 22:50:00,
2013-07-28 18:52:00,76.1,66.4,29.85,East,90,2.0,2.9,72,0.00,,---,0.00,VWS V14.01,2013-07-28 22:52:00,
2013-07-28 18:55:00,77.5,65.3,29.82,WSW,248,0.9,1.6,66,0.00,,---,0.00,VWS V14.01,2013-07-28 22:55:00,
2013-07-28 18:57:00,76.3,68.2,29.85,SE,135,3.8,3.8,76,0.00,,---,0.00,VWS V14.01,2013-07-28 22:57:00,
2013-07-28 19:00:00,77.2,66.2,29.82,South,180,0.0,4.0,69,0.00,,---,0.00,VWS V14.01,2013-07-28 23:00:00,
2013-07-28 19:02:00,76.5,68.3,29.82,South,180,0.0,1.3,76,0.00,,---,0.00,VWS V14.01,2013-07-28 23:02:00,
2013-07-28 19:05:00,77.4,66.0,29.85,WNW,292,0.0,1.1,68,0.00,,---,0.00,VWS V14.01,2013-07-28 23:05:00,
2013-07-28 19:07:00,77.0,68.5,29.82,SSE,158,0.0,0.0,75,0.00,,---,0.00,VWS V14.01,2013-07-28 23:07:00,
2013-07-28 19:10:00,77.2,66.2,29.85,West,270,1.3,2.2,69,0.00,,---,0.00,VWS V14.01,2013-07-28 23:10:00,
2013-07-28 19:12:00,77.5,69.0,29.82,SSE,158,1.1,1.1,75,0.00,,---,0.00,VWS V14.01,2013-07-28 23:12:00,
2013-07-28 19:15:00,77.2,66.2,29.85,WNW,292,1.1,2.2,69,0.00,,---,0.00,VWS V14.01,2013-07-28 23:15:00,
2013-07-28 19:17:00,77.5,68.6,29.82,West,270,0.0,0.0,74,0.00,,---,0.00,VWS V14.01,2013-07-28 23:17:00,
2013-07-28 19:20:00,77.0,66.1,29.85,SE,135,0.9,2.5,69,0.00,,---,0.00,VWS V14.01,2013-07-28 23:20:00,
2013-07-28 19:22:00,77.7,68.8,29.82,East,90,0.9,0.9,74,0.00,,---,0.00,VWS V14.01,2013-07-28 23:22:00,
2013-07-28 19:25:00,77.0,66.1,29.85,NW,315,1.1,1.6,69,0.00,,---,0.00,VWS V14.01,2013-07-28 23:25:00,
2013-07-28 19:27:00,77.7,68.4,29.82,East,90,2.9,3.4,73,0.00,,---,0.00,VWS V14.01,2013-07-28 23:27:00,
2013-07-28 19:30:00,77.0,65.2,29.85,WNW,292,2.0,2.7,67,0.00,,---,0.00,VWS V14.01,2013-07-28 23:30:00,
2013-07-28 19:32:00,77.4,68.0,29.82,South,180,0.0,0.0,73,0.00,,---,0.00,VWS V14.01,2013-07-28 23:32:00,
2013-07-28 19:35:00,76.8,65.5,29.85,West,270,1.3,2.9,68,0.00,,---,0.00,VWS V14.01,2013-07-28 23:35:00,
2013-07-28 19:37:00,77.2,67.9,29.82,South,180,0.0,1.3,73,0.00,,---,0.00,VWS V14.01,2013-07-28 23:37:00,
2013-07-28 19:40:00,76.3,64.9,29.85,WNW,292,2.0,2.7,68,0.00,,---,0.00,VWS V14.01,2013-07-28 23:40:00,
2013-07-28 19:42:00,77.4,68.4,29.82,ESE,112,0.0,0.0,74,0.00,,---,0.00,VWS V14.01,2013-07-28 23:42:00,
2013-07-28 19:45:00,76.1,65.2,29.85,North,0,0.0,2.0,69,0.00,,---,0.00,VWS V14.01,2013-07-28 23:45:00,
2013-07-28 19:48:00,77.4,68.0,29.82,East,90,1.3,2.5,73,0.00,,---,0.00,VWS V14.01,2013-07-28 23:48:00,
2013-07-28 19:50:00,76.1,66.0,29.85,East,90,2.2,2.2,71,0.00,,---,0.00,VWS V14.01,2013-07-28 23:50:00,
2013-07-28 19:53:00,77.0,67.7,29.82,South,180,0.0,0.0,73,0.00,,---,0.00,VWS V14.01,2013-07-28 23:53:00,
2013-07-28 19:55:00,76.1,67.6,29.85,East,90,2.5,2.9,75,0.00,,---,0.00,VWS V14.01,2013-07-28 23:55:00,
2013-07-28 19:58:00,77.2,68.3,29.82,ENE,68,1.3,2.0,74,0.00,,---,0.00,VWS V14.01,2013-07-28 23:58:00,
2013-07-28 20:00:00,76.3,68.2,29.85,SSE,158,1.1,3.8,76,0.00,,---,0.00,VWS V14.01,2013-07-29 00:00:00,
2013-07-28 20:03:00,77.2,68.3,29.85,ENE,68,0.0,0.0,74,0.00,,---,0.00,VWS V14.01,2013-07-29 00:03:00,
2013-07-28 20:05:00,76.8,68.7,29.82,South,180,0.0,1.3,76,0.00,,---,0.00,VWS V14.01,2013-07-29 00:05:00,
2013-07-28 20:08:00,76.6,67.7,29.85,South,180,0.0,0.0,74,0.00,,---,0.00,VWS V14.01,2013-07-29 00:08:00,
2013-07-28 20:10:00,77.4,69.2,29.82,SSE,158,0.0,0.0,76,0.00,,---,0.00,VWS V14.01,2013-07-29 00:10:00,
2013-07-28 20:13:00,76.5,67.9,29.85,South,180,0.0,0.0,75,0.00,,---,0.00,VWS V14.01,2013-07-29 00:13:00,
2013-07-28 20:15:00,77.5,69.0,29.82,West,270,0.0,1.6,75,0.00,,---,0.00,VWS V14.01,2013-07-29 00:15:00,
2013-07-28 20:18:00,76.3,68.2,29.85,South,180,0.0,0.0,76,0.00,,---,0.00,VWS V14.01,2013-07-29 00:18:00,
2013-07-28 20:20:00,77.7,68.8,29.82,West,270,0.0,0.0,74,0.00,,---,0.00,VWS V14.01,2013-07-29 00:20:00,
2013-07-28 20:23:00,76.1,68.0,29.85,South,180,0.0,0.0,76,0.00,,---,0.00,VWS V14.01,2013-07-29 00:23:00,
2013-07-28 20:25:00,77.9,68.6,29.82,ESE,112,1.3,2.0,73,0.00,,---,0.00,VWS V14.01,2013-07-29 00:25:00,
2013-07-28 20:28:00,75.7,67.6,29.85,South,180,0.0,0.0,76,0.00,,---,0.00,VWS V14.01,2013-07-29 00:28:00,
2013-07-28 20:30:00,77.7,68.0,29.82,SSE,158,0.0,3.8,72,0.00,,---,0.00,VWS V14.01,2013-07-29 00:30:00,
2013-07-28 20:33:00,75.4,67.7,29.85,South,180,0.0,0.0,77,0.00,,---,0.00,VWS V14.01,2013-07-29 00:33:00,
2013-07-28 20:35:00,77.2,67.9,29.82,South,180,1.3,1.6,73,0.00,,---,0.00,VWS V14.01,2013-07-29 00:35:00,
2013-07-28 20:38:00,75.4,67.7,29.85,South,180,0.0,0.0,77,0.00,,---,0.00,VWS V14.01,2013-07-29 00:38:00,
2013-07-28 20:40:00,77.4,68.4,29.82,South,180,0.0,1.3,74,0.00,,---,0.00,VWS V14.01,2013-07-29 00:40:00,
2013-07-28 20:43:00,75.2,67.9,29.85,South,180,0.0,0.0,78,0.00,,---,0.00,VWS V14.01,2013-07-29 00:43:00,
2013-07-28 20:45:00,77.4,68.4,29.82,East,90,1.1,3.1,74,0.00,,---,0.00,VWS V14.01,2013-07-29 00:45:00,
2013-07-28 20:48:00,75.0,68.1,29.85,South,180,0.0,0.0,79,0.00,,---,0.00,VWS V14.01,2013-07-29 00:48:00,
2013-07-28 20:50:00,77.2,67.9,29.82,South,180,0.0,2.5,73,0.00,,---,0.00,VWS V14.01,2013-07-29 00:50:00,
2013-07-28 20:53:00,74.8,67.9,29.85,South,180,0.0,0.0,79,0.00,,---,0.00,VWS V14.01,2013-07-29 00:53:00,
2013-07-28 20:55:00,77.0,67.7,29.82,East,90,1.1,1.3,73,0.00,,---,0.00,VWS V14.01,2013-07-29 00:55:00,
2013-07-28 20:58:00,74.7,67.7,29.85,South,180,0.0,0.0,79,0.00,,---,0.00,VWS V14.01,2013-07-29 00:58:00,
2013-07-28 21:00:00,77.2,68.3,29.82,ENE,68,0.0,2.0,74,0.00,,---,0.00,VWS V14.01,2013-07-29 01:00:00,
2013-07-28 21:03:00,74.7,68.1,29.85,South,180,0.0,0.0,80,0.00,,---,0.00,VWS V14.01,2013-07-29 01:03:00,
2013-07-28 21:05:00,77.0,68.1,29.85,South,180,0.0,0.0,74,0.00,,---,0.00,VWS V14.01,2013-07-29 01:05:00,
2013-07-28 21:08:00,74.5,68.3,29.85,South,180,0.0,0.0,81,0.00,,---,0.00,VWS V14.01,2013-07-29 01:08:00,
2013-07-28 21:10:00,76.5,68.0,29.85,South,180,0.0,0.0,75,0.00,,---,0.00,VWS V14.01,2013-07-29 01:10:00,
2013-07-28 21:13:00,74.5,68.3,29.85,South,180,0.0,0.0,81,0.00,,---,0.00,VWS V14.01,2013-07-29 01:13:00,
2013-07-28 21:15:00,76.3,67.8,29.85,South,180,0.0,0.0,75,0.00,,---,0.00,VWS V14.01,2013-07-29 01:15:00,
2013-07-28 21:18:00,74.5,68.3,29.85,South,180,0.0,0.0,81,0.00,,---,0.00,VWS V14.01,2013-07-29 01:18:00,
2013-07-28 21:20:00,76.1,68.0,29.85,South,180,0.0,0.0,76,0.00,,---,0.00,VWS V14.01,2013-07-29 01:20:00,
2013-07-28 21:23:00,74.3,68.8,29.85,South,180,0.0,0.0,83,0.00,,---,0.00,VWS V14.01,2013-07-29 01:23:00,
2013-07-28 21:25:00,75.9,67.8,29.85,South,180,0.0,0.0,76,0.00,,---,0.00,VWS V14.01,2013-07-29 01:25:00,
2013-07-28 21:30:00,74.1,68.6,29.85,South,180,0.0,0.0,83,0.00,,---,0.00,VWS V14.01,2013-07-29 01:30:00,
2013-07-28 21:35:00,74.1,68.3,29.85,South,180,0.0,0.0,82,0.00,,---,0.00,VWS V14.01,2013-07-29 01:35:00,
2013-07-28 21:40:00,75.2,67.9,29.85,South,180,0.0,0.0,78,0.00,,---,0.00,VWS V14.01,2013-07-29 01:40:00,
2013-07-28 21:43:00,73.9,68.5,29.85,South,180,0.0,0.0,83,0.00,,---,0.00,VWS V14.01,2013-07-29 01:43:00,
2013-07-28 21:45:00,75.0,68.1,29.85,South,180,0.0,0.0,79,0.00,,---,0.00,VWS V14.01,2013-07-29 01:45:00,
2013-07-28 21:48:00,73.8,68.3,29.85,South,180,0.0,0.0,83,0.00,,---,0.00,VWS V14.01,2013-07-29 01:48:00,
2013-07-28 21:50:00,75.0,68.1,29.85,South,180,0.0,0.0,79,0.00,,---,0.00,VWS V14.01,2013-07-29 01:50:00,
2013-07-28 21:53:00,73.8,68.6,29.85,South,180,0.0,0.0,84,0.00,,---,0.00,VWS V14.01,2013-07-29 01:53:00,
2013-07-28 21:55:00,74.8,67.9,29.85,South,180,0.0,0.0,79,0.00,,---,0.00,VWS V14.01,2013-07-29 01:55:00,
2013-07-28 21:58:00,73.6,68.4,29.85,South,180,0.0,0.0,84,0.00,,---,0.00,VWS V14.01,2013-07-29 01:58:00,
2013-07-28 22:00:00,74.7,68.1,29.85,South,180,0.0,0.0,80,0.00,,---,0.00,VWS V14.01,2013-07-29 02:00:00,
2013-07-28 22:05:00,73.6,68.8,29.85,South,180,0.0,0.0,85,0.00,,---,0.00,VWS V14.01,2013-07-29 02:05:00,
2013-07-28 22:10:00,73.6,68.8,29.85,South,180,0.0,0.0,85,0.00,,---,0.00,VWS V14.01,2013-07-29 02:10:00,
2013-07-28 22:15:00,74.5,68.3,29.85,South,180,0.0,0.0,81,0.00,,---,0.00,VWS V14.01,2013-07-29 02:15:00,
2013-07-28 22:18:00,73.4,69.0,29.85,South,180,0.0,0.0,86,0.00,,---,0.00,VWS V14.01,2013-07-29 02:18:00,
2013-07-28 22:20:00,74.5,68.6,29.85,South,180,0.0,0.0,82,0.00,,---,0.00,VWS V14.01,2013-07-29 02:20:00,
2013-07-28 22:23:00,73.4,69.0,29.85,South,180,0.0,0.0,86,0.00,,---,0.00,VWS V14.01,2013-07-29 02:23:00,
2013-07-28 22:25:00,74.3,68.8,29.85,South,180,0.0,0.0,83,0.00,,---,0.00,VWS V14.01,2013-07-29 02:25:00,
2013-07-28 22:28:00,73.2,69.1,29.85,South,180,0.0,0.0,87,0.00,,---,0.00,VWS V14.01,2013-07-29 02:28:00,
2013-07-28 22:30:00,74.1,68.6,29.85,South,180,0.0,0.0,83,0.00,,---,0.00,VWS V14.01,2013-07-29 02:30:00,
2013-07-28 22:33:00,73.2,69.1,29.88,South,180,0.0,0.0,87,0.00,,---,0.00,VWS V14.01,2013-07-29 02:33:00,
2013-07-28 22:35:00,74.1,68.3,29.85,South,180,0.0,0.0,82,0.00,,---,0.00,VWS V14.01,2013-07-29 02:35:00,
2013-07-28 22:38:00,73.2,69.1,29.88,South,180,0.0,0.0,87,0.00,,---,0.00,VWS V14.01,2013-07-29 02:38:00,
2013-07-28 22:40:00,74.1,68.6,29.85,South,180,0.0,0.0,83,0.00,,---,0.00,VWS V14.01,2013-07-29 02:40:00,
2013-07-28 22:43:00,73.0,69.3,29.88,South,180,0.0,0.0,88,0.00,,---,0.00,VWS V14.01,2013-07-29 02:43:00,
2013-07-28 22:45:00,73.9,68.8,29.85,South,180,0.0,0.0,84,0.00,,---,0.00,VWS V14.01,2013-07-29 02:45:00,
2013-07-28 22:48:00,73.0,69.3,29.88,South,180,0.0,0.0,88,0.00,,---,0.00,VWS V14.01,2013-07-29 02:48:00,
2013-07-28 22:50:00,73.8,68.3,29.85,South,180,0.0,0.0,83,0.00,,---,0.00,VWS V14.01,2013-07-29 02:50:00,
2013-07-28 22:53:00,73.0,69.6,29.88,South,180,0.0,0.0,89,0.00,,---,0.00,VWS V14.01,2013-07-29 02:53:00,
2013-07-28 22:55:00,73.6,68.4,29.85,South,180,0.0,0.0,84,0.00,,---,0.00,VWS V14.01,2013-07-29 02:55:00,
2013-07-28 22:58:00,72.9,69.4,29.88,South,180,0.0,0.0,89,0.00,,---,0.00,VWS V14.01,2013-07-29 02:58:00,
2013-07-28 23:00:00,73.6,68.4,29.85,South,180,0.0,1.1,84,0.00,,---,0.00,VWS V14.01,2013-07-29 03:00:00,
2013-07-28 23:03:00,72.9,69.4,29.88,South,180,0.0,0.0,89,0.00,,---,0.00,VWS V14.01,2013-07-29 03:03:00,
2013-07-28 23:05:00,73.6,68.8,29.85,South,180,0.0,0.0,85,0.00,,---,0.00,VWS V14.01,2013-07-29 03:05:00,
2013-07-28 23:08:00,72.9,69.4,29.88,South,180,0.0,0.0,89,0.00,,---,0.00,VWS V14.01,2013-07-29 03:08:00,
2013-07-28 23:10:00,73.6,68.8,29.85,South,180,0.0,0.0,85,0.00,,---,0.00,VWS V14.01,2013-07-29 03:10:00,
2013-07-28 23:13:00,72.9,69.4,29.88,South,180,0.0,0.0,89,0.00,,---,0.00,VWS V14.01,2013-07-29 03:13:00,
2013-07-28 23:15:00,73.4,68.6,29.85,South,180,0.0,0.0,85,0.00,,---,0.00,VWS V14.01,2013-07-29 03:15:00,
2013-07-28 23:18:00,72.7,69.3,29.88,South,180,0.0,0.0,89,0.00,,---,0.00,VWS V14.01,2013-07-29 03:18:00,
2013-07-28 23:20:00,73.4,69.0,29.85,South,180,0.0,0.0,86,0.00,,---,0.00,VWS V14.01,2013-07-29 03:20:00,
2013-07-28 23:23:00,72.7,69.3,29.88,South,180,0.0,0.0,89,0.00,,---,0.00,VWS V14.01,2013-07-29 03:23:00,
2013-07-28 23:25:00,73.2,69.1,29.85,South,180,0.0,0.0,87,0.00,,---,0.00,VWS V14.01,2013-07-29 03:25:00,
2013-07-28 23:28:00,72.7,69.6,29.88,South,180,0.0,0.0,90,0.00,,---,0.00,VWS V14.01,2013-07-29 03:28:00,
2013-07-28 23:30:00,73.2,69.1,29.85,South,180,0.0,0.0,87,0.00,,---,0.00,VWS V14.01,2013-07-29 03:30:00,
2013-07-28 23:35:00,72.9,69.8,29.88,South,180,0.0,0.0,90,0.00,,---,0.00,VWS V14.01,2013-07-29 03:35:00,
2013-07-28 23:40:00,72.9,69.8,29.88,South,180,0.0,0.0,90,0.00,,---,0.00,VWS V14.01,2013-07-29 03:40:00,
2013-07-28 23:45:00,73.0,69.3,29.88,South,180,0.0,0.0,88,0.00,,---,0.00,VWS V14.01,2013-07-29 03:45:00,
2013-07-28 23:49:00,72.5,69.4,29.88,South,180,0.0,0.0,90,0.00,,---,0.00,VWS V14.01,2013-07-29 03:49:00,
2013-07-28 23:50:00,73.0,69.3,29.88,South,180,0.0,0.0,88,0.00,,---,0.00,VWS V14.01,2013-07-29 03:50:00,
2013-07-28 23:55:00,72.5,69.7,29.88,South,180,0.0,0.0,91,0.00,,---,0.00,VWS V14.01,2013-07-29 03:55:00,